User: anonymous   Login
Location: Unspecified
(0.0000°N, 0.0000°E)
Time: 07:47:51
(UTC+00:00)
Language:

TBA - TO BE ASSIGNED - Orbit

View from above orbital plane
View from above orbital plane
View from above satellite
View from above satellite

Ground track
Ground track

The orbit is defined by the following mean orbital elements,

1 68219U          26145.39091538 +.00000000 +00000-0 +70890-3 0 00002
2 68219  97.2867  20.8503 0002192  89.4567 270.6927 15.33446772    03
Epoch (UTC): 25 May 2026 09:22:55
Eccentricity: 0.0002192
inclination: 97.2867°
perigee height: 464 km
apogee height: 467 km
right ascension of ascending node: 20.8503°
argument of perigee: 89.4567°
revolutions per day: 15.33446772
mean anomaly at epoch: 270.6927°

The dashed part of the orbit path shows where the satellite is in the earth's shadow,  

DLR